Find Starlink 30989

NORAD ID: 58510 Int'l Des: 2023-191 Owner: SPXS Country: US Constellation: starlink operational
LEOCIRCULAR

リアルタイム位置

3D地球を読み込み中...

Starlink 30989について

説明を読み込み中...

次回通過

Passes for default location (London). Set your location on the main map for personalized predictions.

高度履歴

Loading altitude history...

軌道要素

1 58510U 23191C 26106.71447301 -.00000050 00000-0 77242-5 0 9990
2 58510 43.0045 248.9600 0001740 289.3645 70.7019 15.27578152131311
Epoch: Apr 16, 2026 • Age: 26 hours

現在のステータス

高度 487.3 km
速度 7.63 km/s
衛星直下点 42.99°N, 146.62°W
打ち上げ日 Dec 7, 2023
運用期間 2.3 years
タイプ internet

技術仕様

分類 Payload
質量 730.00 kg
乾燥質量 700.00 kg
総質量 730.00 kg
長さ 0.30 m
直径 4.10 m
スパン 29.00 m
形状 Box + pan
製造者 SPXS
バスタイプ Starlink V2M
フェーズステータス In Orbit
所有者/国 SPXS/US

Most Searched